SCP
-0 0 0 -0 0 0 0 0 0 0 0 0 0 -0 0 0 0 0 0 0 -0 -0 -0 -0 -0 -0 -0 -0 -0 -0 -0 -0 -0 0 0 0 0 0 -0 -0 0 0 0 0 0 0 0 0 0
0 0 0 0 0 0 0 0 0 0 -0 -0 -0 0 0 0 0 0 0 -0 -0 0 0 -0 -0 -0 -0 -0 -0 -0 -0 -0 -0 -0 -0 0 0 0 0 0 0 0 0 0 0 0 0 0 0
0 0 0 0 0 0 0 0 0 0 0 0 -0 0 0 0 0 0 0 0 0 0 0 -0 -0 -0 -0 -0 -0 -0 -0 -0 -0 -0 -0 0 0 0 0 0 0 0 0 0 0 0 0 0 0
0 0 0 0 0 0 0 0 0 0 0 0 0 -0 0 0 0 0 0 0 0 0 0 -0 -0 -0 -0 -0 -0 -0 -0 -0 -0 -0 -0 0 0 0 0 0 0 0 0 0 0 0 0 0 0
0 0 0 0 0 0 0 0 0 0 0 0 0 0 0 0 0 0 0 0 0 0 0 0 -0 -0 -0 -0 -0 -0 -0 -0 -0 -0 -0 0 0 0 0 0 0 0 0 0 0 0 0 0 0
0 0 0 0 0 0 0 0 0 0 0 0 0 0 0 0 0 0 0 0 0 0 0 0 0 -0 -0 -0 -0 -0 -0 -0 -0 -0 -0 0 0 0 0 0 0 0 0 0 0 0 0 0 0
0 0 0 0 0 0 0 0 0 0 0 0 0 0 0 0 0 0 0 0 0 0 0 0 0 0 0 0 0 0 0 0 0 0 0 0 0 0 0 0 0 0 0 0 0 0 0 0 0
0 0 0 0 0 0 0 0 0 0 0 0 0 0 0 0 0 0 0 0 0 0 0 0 0 0 0 0 0 0 0 0 0 0 0 0 0 0 0 0 0 0 0 0 0 0 0 0 0
0 0 0 0 0 0 0 0 0 0 0 0 0 0 0 0 0 0 0 0 0 0 0 0 0 0 0 0 0 0 0 0 0 0 0 0 0 0 0 0 0 0 0 0 0 0 0 0 0
0 0 0 0 0 0 0 0 0 0 0 0 0 0 0 0 0 0 0 0 0 0 0 0 0 0 0 0 0 0 0 0 0 0 0 0 0 0 0 0 0 0 0 0 0 0 0 0 0
0 0 0 0 0 0 0 0 0 0 0 0 0 0 0 0 0 0 0 0 0 0 0 0 0 0 0 0 0 0 0 0 0 0 0 0 0 0 0 0 0 0 0 0 0 0 0 0 0
0 0 0 0 0 0 0 0 0 0 0 0 0 0 0 0 0 0 0 0 0 0 0 0 0 0 0 0 0 0 0 0 0 0 0 -0 -0 -0 0 -0 0 0 0 0 -0 -0 0 0 0
0 0 0 0 0 0 0 0 0 0 0 0 0 0 0 0 0 0 0 0 0 0 0 0 0 0 0 0 0 0 0 0 0 0 0 0 -0 -0 -0 -0 -0 0 0 0 0 0 -0 0 0
0 0 0 0 0 0 0 0 0 0 0 0 0 0 0 0 0 0 0 0 0 0 0 0 0 0 0 0 0 0 0 0 0 0 -0 -0 -0 -0 -0 -0 -0 -0 -0 0 0 0 0 0 0
0 0 0 0 0 0 0 0 0 0 0 0 0 0 0 0 0 0 0 0 0 0 0 0 0 0 0 0 0 0 0 0 0 0 0 0 -0 -0 -0 -0 -0 -0 -0 -0 -0 0 0 0 0
0 0 0 0 0 0 0 0 0 0 0 0 0 0 0 0 0 0 0 0 0 0 0 0 0 0 0 0 0 0 0 0 0 0 0 0 -0 -0 -0 -0 -0 -0 -0 -0 -0 -0 -0 0 0
0 0 0 0 0 0 0 0 0 0 0 0 0 0 0 0 0 0 0 0 0 0 0 0 0 0 0 0 0 0 0 0 0 0 0 0 0 -0 -0 -0 -0 -0 -0 -0 -0 -0 -0 -0 -0
0 0 0 0 0 0 0 0 0 0 0 0 0 0 0 0 0 0 0 0 0 0 0 0 0 0 0 0 0 0 0 0 0 0 -0 0 0 0 0 0 0 -0 -0 -0 -0 -0 -0 -0 -0
0 0 0 0 0 0 0 0 0 0 0 0 0 0 0 0 0 0 0 0 0 0 0 0 0 0 0 0 0 0 0 0 0 0 0 0 0 0 0 0 0 -0 -0 0 0 0 -0 -0 0
0 0 0 0 0 0 0 0 0 0 0 0 0 0 0 0 0 0 0 0 0 0 0 0 0 0 0 0 0 0 0 0 -0 -0 0 0 0 0 0 0 0 0 0 0 0 0 0 0 0
0 0 0 0 0 0 0 0 0 0 0 0 0 0 0 0 0 0 0 0 0 0 0 0 0 0 0 0 0 0 0 0 -0 -0 0 0 0 0 0 0 0 0 0 0 0 0 0 0 0
0 0 0 0 0 0 0 0 0 0 0 0 0 0 0 0 0 0 0 0 0 0 0 0 0 0 0 0 0 0 0 0 -0 0 0 0 0 0 0 0 0 0 0 0 0 0 0 0 0
0 0 0 0 0 0 0 0 0 0 0 -0 0 0 0 0 0 0 0 0 0 0 0 0 0 0 0 0 0 0 0 0 0 0 0 0 0 0 0 0 0 0 0 0 0 0 0 0 0
0 0 0 0 0 0 0 0 0 0 0 0 0 0 0 0 0 0 0 0 0 0 0 0 0 0 0 0 0 0 0 0 0 0 0 0 0 0 0 0 0 0 0 0 0 0 0 0 0
0 0 0 0 0 0 0 0 0 0 0 0 0 0 0 0 0 0 0 0 0 0 0 0 0 0 0 0 0 0 0 0 0 0 0 0 0 0 0 0 0 0 0 0 0 0 0 0 0
0 0 0 0 0 0 0 0 0 0 0 0 0 0 0 0 0 0 0 0 0 0 0 0 0 0 0 0 0 0 0 0 0 0 0 0 0 0 0 0 0 0 0 0 0 0 0 0 0
0 0 0 0 0 0 0 0 0 0 0 0 0 0 0 0 0 0 0 0 0 0 0 0 0 0 0 0 0 0 0 0 0 0 0 0 0 0 0 0 0 0 0 0 0 0 0 0 0
0 0 0 0 0 0 0 0 0 0 0 0 0 0 0 0 0 0 0 0 0 0 0 0 0 0 0 0 0 0 0 0 0 0 0 0 0 0 0 0 0 0 0 0 0 0 0 0 0
0 0 0 0 0 0 0 0 0 0 0 0 0 0 0 0 0 0 0 0 0 0 0 0 0 0 0 0 0 0 0 0 0 0 0 0 0 0 0 0 0 0 0 0 0 0 0 0 0
0 0 0 0 0 0 0 0 0 0 0 0 0 0 0 0 0 0 0 0 0 0 0 0 0 0 0 0 0 0 0 0 0 0 0 0 0 0 0 0 0 0 0 0 0 0 0 0 0
Wind_Speed_500mb
5 6 4 1 8 11 1 4 1 5 5 11 23 19 20 15 5 7 7 3 9 18 19 17 13 6 5 8 6 7 8 8 10 13 15 18 21 24 25 25 27 30 31 30 29 31 32 35 38
3 4 3 4 9 7 6 7 8 5 30 38 31 16 14 5 11 11 13 5 9 13 17 16 12 10 7 11 13 12 9 12 15 16 17 20 22 24 28 29 31 30 32 33 34 36 34 33 36
3 3 3 9 6 6 8 7 9 14 41 4 12 17 8 10 14 12 10 2 8 12 13 10 13 10 8 10 18 19 20 22 22 22 24 25 27 28 29 32 36 36 36 37 38 38 39 36 36
4 5 10 9 4 5 4 8 9 22 8 9 26 18 10 11 16 15 9 3 5 8 9 8 9 9 8 5 8 13 20 24 31 32 34 30 29 31 33 34 35 37 39 41 41 41 41 39 38
5 5 9 7 2 2 5 4 24 8 9 14 9 13 15 19 24 18 12 7 3 2 7 10 11 13 15 16 16 13 15 18 23 28 32 36 40 42 42 41 40 40 39 40 41 42 42 44 42
6 6 8 4 6 3 4 7 14 9 13 17 14 25 18 26 25 20 14 12 9 5 2 2 6 9 11 15 17 21 22 23 25 25 27 31 37 44 49 49 48 46 45 41 41 42 44 47 47
11 8 10 10 8 3 10 13 17 15 16 11 25 14 17 36 28 21 17 15 11 8 4 1 4 7 10 13 17 20 23 27 31 35 36 35 35 37 42 48 51 53 53 53 53 47 46 47 49
6 9 9 7 11 9 13 11 15 15 9 23 21 14 13 49 38 29 22 19 18 13 9 4 4 8 12 14 15 19 25 28 30 33 34 37 40 40 38 39 46 53 54 55 53 56 54 54 56
4 8 4 14 14 9 17 9 13 11 17 27 26 16 19 50 46 34 26 24 20 15 10 4 3 8 13 16 20 23 26 29 29 32 35 34 36 41 46 45 45 46 51 54 56 56 59 62 62
8 6 13 10 10 8 14 12 23 13 15 18 21 26 26 51 46 36 32 30 25 19 9 4 4 7 11 14 18 23 26 30 34 36 38 40 41 42 41 46 53 53 53 51 57 61 65 67 69
3 5 6 6 11 9 10 8 20 17 10 34 49 48 48 53 45 39 37 31 25 16 10 8 6 7 12 15 20 22 25 28 32 36 39 42 45 46 49 46 47 52 56 61 62 59 63 66 64
4 1 5 6 11 7 5 8 12 38 25 18 37 45 54 55 48 43 40 33 26 19 16 11 8 6 11 17 20 23 24 27 31 38 43 48 51 55 57 58 60 60 61 65 67 67 68 66 71
3 2 6 10 14 19 13 14 19 33 50 38 27 48 54 52 47 45 39 34 27 22 15 10 8 9 14 17 18 21 26 30 33 37 45 52 55 59 60 63 64 62 62 65 69 72 75 76 74
2 9 14 16 26 19 10 8 5 14 34 39 39 54 55 51 47 45 41 35 28 23 18 14 10 10 12 16 22 25 29 33 38 42 48 53 60 64 70 71 72 71 69 65 68 76 78 80 80
5 10 11 8 10 8 12 12 20 38 25 33 47 53 54 54 53 55 45 42 36 29 23 17 13 13 14 17 20 25 29 32 37 41 46 54 61 65 68 74 78 80 81 82 78 70 74 84 85
7 7 9 3 11 1 9 21 15 28 36 48 55 59 62 62 61 54 50 45 39 31 25 20 17 15 14 17 21 26 30 35 39 43 49 54 59 63 67 69 74 81 84 86 88 90 91 79 81
12 7 5 16 17 6 10 20 14 16 42 55 66 71 73 69 65 61 56 50 43 37 32 27 20 17 17 20 25 29 34 39 42 45 49 53 58 62 68 71 74 81 87 89 90 92 88 95 93
9 8 10 14 5 7 10 33 31 38 45 67 74 77 81 79 79 70 64 59 50 43 36 27 20 19 21 23 28 32 36 41 46 51 54 58 61 63 65 69 71 76 83 88 89 91 89 86 86
7 8 15 11 10 6 19 28 42 39 45 53 62 72 82 92 79 70 66 61 53 46 37 29 25 23 23 26 32 36 41 44 47 51 56 61 63 64 68 71 77 80 85 85 86 88 91 90 76
7 7 17 16 2 12 21 33 31 36 44 56 56 69 87 84 89 84 77 70 60 48 39 34 29 24 25 28 34 41 47 49 53 55 57 61 63 64 67 70 75 80 85 87 87 85 89 91 82
8 11 10 15 12 10 16 18 12 14 26 49 57 62 66 81 91 88 84 79 65 58 46 38 30 25 25 28 34 41 48 54 59 62 63 64 66 68 73 73 74 79 86 91 92 90 87 92 88
8 11 6 8 9 8 10 22 9 14 22 14 39 50 67 69 73 90 93 87 77 61 49 39 32 26 26 30 37 44 52 57 60 63 67 68 68 68 71 77 76 80 85 93 97 93 87 81 94
14 6 5 2 5 7 8 10 12 6 16 38 19 51 60 68 72 83 99 91 76 62 51 40 33 29 30 32 39 47 52 55 62 67 72 74 73 72 73 77 77 81 87 93 96 93 87 79 80
8 5 9 8 3 4 11 16 9 13 17 14 14 28 33 45 62 70 82 83 76 63 52 42 35 33 32 33 40 48 55 59 65 70 73 77 79 78 75 78 82 84 89 93 99 97 90 91 93
6 10 7 9 5 17 7 6 29 16 22 20 19 33 37 38 50 61 73 86 81 69 53 43 38 35 33 37 43 50 54 59 65 69 74 79 82 82 80 83 85 89 93 95 98 99 97 95 85
12 16 11 15 7 23 6 18 15 22 31 29 31 34 36 40 49 57 74 88 83 69 55 45 40 34 34 40 45 49 54 59 64 69 76 80 82 87 89 89 89 90 95 98 97 100 96 89 82
11 11 6 10 5 5 11 18 13 20 22 19 36 34 46 44 49 55 74 86 78 66 53 45 39 34 36 41 47 49 53 60 66 69 73 80 83 87 89 89 92 95 98 99 99 100 98 90 85
8 7 8 4 6 12 22 30 28 27 21 22 16 34 41 42 47 57 74 85 75 62 51 45 39 35 37 41 46 50 55 60 65 71 74 79 81 84 87 89 92 98 101 101 96 94 92 87 74
6 6 3 4 10 12 8 29 9 15 17 21 21 37 42 45 50 58 75 83 72 62 52 45 37 36 38 43 46 51 58 62 66 71 75 79 81 82 86 90 94 99 103 99 94 90 89 82 79
4 17 22 13 15 7 6 46 5 13 19 13 21 39 40 43 48 59 72 83 73 64 56 46 38 36 39 43 47 54 59 64 67 71 77 80 84 83 85 90 97 101 102 94 89 87 79 78 77
Wind_Direction_500mb
119 135 99 68 59 68 139 228 226 174 90 70 93 111 114 69 83 181 125 342 318 317 329 324 330 324 251 226 227 225 233 249 270 279 286 293 299 298 292 287 295 302 304 305 305 304 300 284 277
119 106 88 91 82 68 266 267 181 166 134 114 91 88 66 88 96 116 184 350 329 333 331 330 331 323 280 248 240 236 240 247 252 262 262 264 273 281 287 287 286 288 294 297 299 302 303 297 283
104 85 37 86 96 150 179 212 151 124 143 154 107 78 95 124 124 144 139 354 334 328 320 334 342 348 307 283 269 272 263 258 256 257 264 267 270 272 275 278 280 284 285 288 292 294 297 299 293
161 122 73 83 137 219 189 182 145 132 128 169 130 81 115 164 166 154 140 82 350 338 346 2 8 11 19 360 317 298 291 284 278 276 273 275 279 278 279 277 277 278 282 283 285 289 292 291 292
111 60 54 70 290 233 230 178 158 141 128 143 167 163 143 156 157 152 153 155 218 60 59 56 51 41 35 31 28 11 347 325 308 301 295 288 283 283 283 283 283 282 281 284 283 279 282 285 284
84 75 68 185 253 238 263 167 158 139 153 150 134 143 160 172 169 173 184 209 210 188 150 73 45 33 26 19 8 358 350 339 330 323 316 305 294 287 284 282 281 281 279 276 277 280 278 278 277
118 87 169 170 202 232 194 163 161 158 159 192 154 136 171 181 183 190 203 217 221 216 212 77 38 23 13 2 354 348 340 332 322 314 308 304 302 298 289 281 279 276 277 278 276 272 271 274 274
107 95 129 187 192 236 187 157 156 174 182 163 182 184 193 189 190 199 207 214 222 224 226 238 348 2 4 358 351 344 337 330 324 315 307 298 293 292 292 293 281 277 275 273 272 272 272 270 266
94 63 176 194 160 232 172 145 174 183 160 184 201 212 218 188 188 198 204 211 210 212 211 205 333 350 358 1 1 357 351 345 338 331 324 317 312 305 297 296 293 290 282 279 276 273 271 271 268
77 106 217 188 198 216 179 183 177 169 188 213 215 217 193 183 189 199 206 210 208 209 209 246 322 353 5 9 8 5 357 352 348 344 339 334 330 327 320 311 301 295 290 288 281 277 275 272 270
99 170 213 242 223 216 187 181 182 170 221 215 214 199 186 185 192 203 209 208 211 219 237 264 303 331 349 0 7 6 2 357 353 347 344 338 333 328 324 321 316 311 303 291 284 280 274 271 271
22 127 237 262 213 206 229 170 227 213 228 236 233 213 196 193 197 203 209 211 213 217 225 238 266 317 348 1 2 2 0 359 355 352 346 341 337 334 332 331 327 323 320 314 307 294 284 281 271
101 318 297 269 249 240 239 227 238 249 243 249 235 204 203 201 201 206 210 214 219 224 234 256 298 338 4 3 1 359 356 355 354 349 344 341 339 337 336 333 331 326 319 315 311 307 300 293 286
259 271 262 252 245 241 206 247 264 272 239 235 220 207 206 208 208 211 215 221 220 227 236 258 292 334 351 350 354 352 352 351 349 347 345 341 339 336 335 334 332 330 326 320 314 310 308 302 294
304 320 316 215 217 246 204 275 238 261 234 215 210 209 210 211 213 222 227 224 224 226 236 252 279 302 331 337 340 343 344 343 343 344 342 340 337 335 334 333 332 331 329 325 321 313 306 303 300
25 51 1 235 158 252 150 270 262 262 224 213 213 213 216 217 222 224 224 224 223 226 235 249 266 289 306 323 332 339 341 341 341 339 340 338 335 332 331 330 330 328 326 324 323 322 317 307 300
8 283 288 312 200 134 172 269 254 256 219 226 227 224 223 223 222 221 222 224 223 227 235 245 261 281 307 321 331 337 338 336 337 338 336 335 331 330 330 330 329 326 323 323 321 318 315 310 306
244 286 264 246 217 201 220 261 266 256 230 234 238 234 229 226 225 221 219 220 221 226 235 247 265 288 303 317 327 330 332 335 336 333 334 333 331 329 326 324 323 322 320 318 317 316 313 309 303
168 204 242 250 245 258 246 249 268 267 238 238 236 234 235 235 229 223 221 219 219 224 233 247 267 286 307 318 320 325 331 333 330 329 330 330 328 327 327 325 325 324 321 319 319 318 313 309 304
166 230 265 282 305 197 267 258 260 260 257 245 242 232 238 234 227 219 216 216 221 229 233 248 264 282 301 313 321 328 328 328 329 329 331 327 326 324 324 325 323 322 322 322 321 319 312 303 298
212 196 238 239 327 251 300 267 237 274 261 258 252 255 253 241 235 220 216 216 219 224 233 246 260 274 297 310 319 322 323 327 331 330 329 326 324 327 325 324 323 323 323 322 321 317 309 302 292
242 210 233 284 4 257 20 290 228 243 275 249 259 251 252 245 237 230 220 217 219 224 232 242 255 270 294 307 318 323 325 326 329 326 324 322 323 323 322 321 322 321 320 319 317 314 305 296 289
225 138 164 120 220 351 239 276 257 21 261 265 260 262 256 250 244 232 224 221 221 225 232 240 250 266 289 308 317 319 322 324 324 323 320 319 319 322 323 321 319 317 317 316 314 310 301 292 282
127 96 61 59 69 293 228 194 200 185 209 249 250 260 265 258 247 238 232 221 220 223 229 238 246 263 289 306 312 317 320 323 322 320 317 318 319 321 321 319 318 316 315 315 312 308 300 291 284
104 73 317 324 351 242 159 220 255 236 229 228 252 281 284 266 245 235 226 214 215 219 228 238 246 263 288 303 312 318 321 320 317 317 316 317 319 320 321 318 317 316 315 313 310 305 298 293 284
177 171 168 232 232 284 342 245 268 228 260 257 256 268 273 256 244 236 224 215 214 219 225 234 245 267 290 303 311 316 316 315 315 317 318 319 319 320 320 318 317 315 313 310 308 303 298 291 274
183 189 162 97 116 341 242 270 279 260 270 263 260 263 258 252 243 235 221 215 215 218 226 236 249 273 292 303 309 313 314 314 316 318 318 318 320 319 318 317 315 314 313 310 307 301 297 293 286
175 171 77 13 263 266 265 276 257 250 247 246 243 239 255 247 240 234 221 214 214 220 229 239 255 277 292 302 307 313 314 315 317 318 319 318 318 318 317 316 315 314 311 309 305 298 294 289 284
130 216 68 159 162 206 277 269 224 230 202 228 228 236 247 241 242 236 224 214 216 222 230 241 257 276 291 300 309 313 314 316 316 318 319 319 319 320 319 317 315 313 310 308 302 294 292 286 283
238 194 175 200 227 247 133 270 248 196 206 230 236 247 245 246 246 239 228 211 213 221 231 239 256 275 290 301 308 311 314 317 321 322 323 323 322 322 321 319 315 312 308 307 301 295 290 284 283
Wind_Speed_850mb
5 6 4 1 8 11 1 4 1 5 5 11 23 19 20 15 5 7 7 3 9 18 19 17 13 6 5 8 6 7 8 8 10 13 15 18 21 24 25 25 27 30 31 30 29 31 32 35 38
3 4 3 4 9 7 6 7 8 5 30 38 31 16 14 5 11 11 13 5 9 13 17 16 12 10 7 11 13 12 9 12 15 16 17 20 22 24 28 29 31 30 32 33 34 36 34 33 36
3 3 3 9 6 6 8 7 9 14 41 4 12 17 8 10 14 12 10 2 8 12 13 10 13 10 8 10 18 19 20 22 22 22 24 25 27 28 29 32 36 36 36 37 38 38 39 36 36
4 5 10 9 4 5 4 8 9 22 8 9 26 18 10 11 16 15 9 3 5 8 9 8 9 9 8 5 8 13 20 24 31 32 34 30 29 31 33 34 35 37 39 41 41 41 41 39 38
5 5 9 7 2 2 5 4 24 8 9 14 9 13 15 19 24 18 12 7 3 2 7 10 11 13 15 16 16 13 15 18 23 28 32 36 40 42 42 41 40 40 39 40 41 42 42 44 42
6 6 8 4 6 3 4 7 14 9 13 17 14 25 18 26 25 20 14 12 9 5 2 2 6 9 11 15 17 21 22 23 25 25 27 31 37 44 49 49 48 46 45 41 41 42 44 47 47
11 8 10 10 8 3 10 13 17 15 16 11 25 14 17 36 28 21 17 15 11 8 4 1 4 7 10 13 17 20 23 27 31 35 36 35 35 37 42 48 51 53 53 53 53 47 46 47 49
6 9 9 7 11 9 13 11 15 15 9 23 21 14 13 49 38 29 22 19 18 13 9 4 4 8 12 14 15 19 25 28 30 33 34 37 40 40 38 39 46 53 54 55 53 56 54 54 56
4 8 4 14 14 9 17 9 13 11 17 27 26 16 19 50 46 34 26 24 20 15 10 4 3 8 13 16 20 23 26 29 29 32 35 34 36 41 46 45 45 46 51 54 56 56 59 62 62
8 6 13 10 10 8 14 12 23 13 15 18 21 26 26 51 46 36 32 30 25 19 9 4 4 7 11 14 18 23 26 30 34 36 38 40 41 42 41 46 53 53 53 51 57 61 65 67 69
3 5 6 6 11 9 10 8 20 17 10 34 49 48 48 53 45 39 37 31 25 16 10 8 6 7 12 15 20 22 25 28 32 36 39 42 45 46 49 46 47 52 56 61 62 59 63 66 64
4 1 5 6 11 7 5 8 12 38 25 18 37 45 54 55 48 43 40 33 26 19 16 11 8 6 11 17 20 23 24 27 31 38 43 48 51 55 57 58 60 60 61 65 67 67 68 66 71
3 2 6 10 14 19 13 14 19 33 50 38 27 48 54 52 47 45 39 34 27 22 15 10 8 9 14 17 18 21 26 30 33 37 45 52 55 59 60 63 64 62 62 65 69 72 75 76 74
2 9 14 16 26 19 10 8 5 14 34 39 39 54 55 51 47 45 41 35 28 23 18 14 10 10 12 16 22 25 29 33 38 42 48 53 60 64 70 71 72 71 69 65 68 76 78 80 80
5 10 11 8 10 8 12 12 20 38 25 33 47 53 54 54 53 55 45 42 36 29 23 17 13 13 14 17 20 25 29 32 37 41 46 54 61 65 68 74 78 80 81 82 78 70 74 84 85
7 7 9 3 11 1 9 21 15 28 36 48 55 59 62 62 61 54 50 45 39 31 25 20 17 15 14 17 21 26 30 35 39 43 49 54 59 63 67 69 74 81 84 86 88 90 91 79 81
12 7 5 16 17 6 10 20 14 16 42 55 66 71 73 69 65 61 56 50 43 37 32 27 20 17 17 20 25 29 34 39 42 45 49 53 58 62 68 71 74 81 87 89 90 92 88 95 93
9 8 10 14 5 7 10 33 31 38 45 67 74 77 81 79 79 70 64 59 50 43 36 27 20 19 21 23 28 32 36 41 46 51 54 58 61 63 65 69 71 76 83 88 89 91 89 86 86
7 8 15 11 10 6 19 28 42 39 45 53 62 72 82 92 79 70 66 61 53 46 37 29 25 23 23 26 32 36 41 44 47 51 56 61 63 64 68 71 77 80 85 85 86 88 91 90 76
7 7 17 16 2 12 21 33 31 36 44 56 56 69 87 84 89 84 77 70 60 48 39 34 29 24 25 28 34 41 47 49 53 55 57 61 63 64 67 70 75 80 85 87 87 85 89 91 82
8 11 10 15 12 10 16 18 12 14 26 49 57 62 66 81 91 88 84 79 65 58 46 38 30 25 25 28 34 41 48 54 59 62 63 64 66 68 73 73 74 79 86 91 92 90 87 92 88
8 11 6 8 9 8 10 22 9 14 22 14 39 50 67 69 73 90 93 87 77 61 49 39 32 26 26 30 37 44 52 57 60 63 67 68 68 68 71 77 76 80 85 93 97 93 87 81 94
14 6 5 2 5 7 8 10 12 6 16 38 19 51 60 68 72 83 99 91 76 62 51 40 33 29 30 32 39 47 52 55 62 67 72 74 73 72 73 77 77 81 87 93 96 93 87 79 80
8 5 9 8 3 4 11 16 9 13 17 14 14 28 33 45 62 70 82 83 76 63 52 42 35 33 32 33 40 48 55 59 65 70 73 77 79 78 75 78 82 84 89 93 99 97 90 91 93
6 10 7 9 5 17 7 6 29 16 22 20 19 33 37 38 50 61 73 86 81 69 53 43 38 35 33 37 43 50 54 59 65 69 74 79 82 82 80 83 85 89 93 95 98 99 97 95 85
12 16 11 15 7 23 6 18 15 22 31 29 31 34 36 40 49 57 74 88 83 69 55 45 40 34 34 40 45 49 54 59 64 69 76 80 82 87 89 89 89 90 95 98 97 100 96 89 82
11 11 6 10 5 5 11 18 13 20 22 19 36 34 46 44 49 55 74 86 78 66 53 45 39 34 36 41 47 49 53 60 66 69 73 80 83 87 89 89 92 95 98 99 99 100 98 90 85
8 7 8 4 6 12 22 30 28 27 21 22 16 34 41 42 47 57 74 85 75 62 51 45 39 35 37 41 46 50 55 60 65 71 74 79 81 84 87 89 92 98 101 101 96 94 92 87 74
6 6 3 4 10 12 8 29 9 15 17 21 21 37 42 45 50 58 75 83 72 62 52 45 37 36 38 43 46 51 58 62 66 71 75 79 81 82 86 90 94 99 103 99 94 90 89 82 79
4 17 22 13 15 7 6 46 5 13 19 13 21 39 40 43 48 59 72 83 73 64 56 46 38 36 39 43 47 54 59 64 67 71 77 80 84 83 85 90 97 101 102 94 89 87 79 78 77
Wind_Direction_850mb
119 135 99 68 59 68 139 228 226 174 90 70 93 111 114 69 83 181 125 342 318 317 329 324 330 324 251 226 227 225 233 249 270 279 286 293 299 298 292 287 295 302 304 305 305 304 300 284 277
119 106 88 91 82 68 266 267 181 166 134 114 91 88 66 88 96 116 184 350 329 333 331 330 331 323 280 248 240 236 240 247 252 262 262 264 273 281 287 287 286 288 294 297 299 302 303 297 283
104 85 37 86 96 150 179 212 151 124 143 154 107 78 95 124 124 144 139 354 334 328 320 334 342 348 307 283 269 272 263 258 256 257 264 267 270 272 275 278 280 284 285 288 292 294 297 299 293
161 122 73 83 137 219 189 182 145 132 128 169 130 81 115 164 166 154 140 82 350 338 346 2 8 11 19 360 317 298 291 284 278 276 273 275 279 278 279 277 277 278 282 283 285 289 292 291 292
111 60 54 70 290 233 230 178 158 141 128 143 167 163 143 156 157 152 153 155 218 60 59 56 51 41 35 31 28 11 347 325 308 301 295 288 283 283 283 283 283 282 281 284 283 279 282 285 284
84 75 68 185 253 238 263 167 158 139 153 150 134 143 160 172 169 173 184 209 210 188 150 73 45 33 26 19 8 358 350 339 330 323 316 305 294 287 284 282 281 281 279 276 277 280 278 278 277
118 87 169 170 202 232 194 163 161 158 159 192 154 136 171 181 183 190 203 217 221 216 212 77 38 23 13 2 354 348 340 332 322 314 308 304 302 298 289 281 279 276 277 278 276 272 271 274 274
107 95 129 187 192 236 187 157 156 174 182 163 182 184 193 189 190 199 207 214 222 224 226 238 348 2 4 358 351 344 337 330 324 315 307 298 293 292 292 293 281 277 275 273 272 272 272 270 266
94 63 176 194 160 232 172 145 174 183 160 184 201 212 218 188 188 198 204 211 210 212 211 205 333 350 358 1 1 357 351 345 338 331 324 317 312 305 297 296 293 290 282 279 276 273 271 271 268
77 106 217 188 198 216 179 183 177 169 188 213 215 217 193 183 189 199 206 210 208 209 209 246 322 353 5 9 8 5 357 352 348 344 339 334 330 327 320 311 301 295 290 288 281 277 275 272 270
99 170 213 242 223 216 187 181 182 170 221 215 214 199 186 185 192 203 209 208 211 219 237 264 303 331 349 0 7 6 2 357 353 347 344 338 333 328 324 321 316 311 303 291 284 280 274 271 271
22 127 237 262 213 206 229 170 227 213 228 236 233 213 196 193 197 203 209 211 213 217 225 238 266 317 348 1 2 2 0 359 355 352 346 341 337 334 332 331 327 323 320 314 307 294 284 281 271
101 318 297 269 249 240 239 227 238 249 243 249 235 204 203 201 201 206 210 214 219 224 234 256 298 338 4 3 1 359 356 355 354 349 344 341 339 337 336 333 331 326 319 315 311 307 300 293 286
259 271 262 252 245 241 206 247 264 272 239 235 220 207 206 208 208 211 215 221 220 227 236 258 292 334 351 350 354 352 352 351 349 347 345 341 339 336 335 334 332 330 326 320 314 310 308 302 294
304 320 316 215 217 246 204 275 238 261 234 215 210 209 210 211 213 222 227 224 224 226 236 252 279 302 331 337 340 343 344 343 343 344 342 340 337 335 334 333 332 331 329 325 321 313 306 303 300
25 51 1 235 158 252 150 270 262 262 224 213 213 213 216 217 222 224 224 224 223 226 235 249 266 289 306 323 332 339 341 341 341 339 340 338 335 332 331 330 330 328 326 324 323 322 317 307 300
8 283 288 312 200 134 172 269 254 256 219 226 227 224 223 223 222 221 222 224 223 227 235 245 261 281 307 321 331 337 338 336 337 338 336 335 331 330 330 330 329 326 323 323 321 318 315 310 306
244 286 264 246 217 201 220 261 266 256 230 234 238 234 229 226 225 221 219 220 221 226 235 247 265 288 303 317 327 330 332 335 336 333 334 333 331 329 326 324 323 322 320 318 317 316 313 309 303
168 204 242 250 245 258 246 249 268 267 238 238 236 234 235 235 229 223 221 219 219 224 233 247 267 286 307 318 320 325 331 333 330 329 330 330 328 327 327 325 325 324 321 319 319 318 313 309 304
166 230 265 282 305 197 267 258 260 260 257 245 242 232 238 234 227 219 216 216 221 229 233 248 264 282 301 313 321 328 328 328 329 329 331 327 326 324 324 325 323 322 322 322 321 319 312 303 298
212 196 238 239 327 251 300 267 237 274 261 258 252 255 253 241 235 220 216 216 219 224 233 246 260 274 297 310 319 322 323 327 331 330 329 326 324 327 325 324 323 323 323 322 321 317 309 302 292
242 210 233 284 4 257 20 290 228 243 275 249 259 251 252 245 237 230 220 217 219 224 232 242 255 270 294 307 318 323 325 326 329 326 324 322 323 323 322 321 322 321 320 319 317 314 305 296 289
225 138 164 120 220 351 239 276 257 21 261 265 260 262 256 250 244 232 224 221 221 225 232 240 250 266 289 308 317 319 322 324 324 323 320 319 319 322 323 321 319 317 317 316 314 310 301 292 282
127 96 61 59 69 293 228 194 200 185 209 249 250 260 265 258 247 238 232 221 220 223 229 238 246 263 289 306 312 317 320 323 322 320 317 318 319 321 321 319 318 316 315 315 312 308 300 291 284
104 73 317 324 351 242 159 220 255 236 229 228 252 281 284 266 245 235 226 214 215 219 228 238 246 263 288 303 312 318 321 320 317 317 316 317 319 320 321 318 317 316 315 313 310 305 298 293 284
177 171 168 232 232 284 342 245 268 228 260 257 256 268 273 256 244 236 224 215 214 219 225 234 245 267 290 303 311 316 316 315 315 317 318 319 319 320 320 318 317 315 313 310 308 303 298 291 274
183 189 162 97 116 341 242 270 279 260 270 263 260 263 258 252 243 235 221 215 215 218 226 236 249 273 292 303 309 313 314 314 316 318 318 318 320 319 318 317 315 314 313 310 307 301 297 293 286
175 171 77 13 263 266 265 276 257 250 247 246 243 239 255 247 240 234 221 214 214 220 229 239 255 277 292 302 307 313 314 315 317 318 319 318 318 318 317 316 315 314 311 309 305 298 294 289 284
130 216 68 159 162 206 277 269 224 230 202 228 228 236 247 241 242 236 224 214 216 222 230 241 257 276 291 300 309 313 314 316 316 318 319 319 319 320 319 317 315 313 310 308 302 294 292 286 283
238 194 175 200 227 247 133 270 248 196 206 230 236 247 245 246 246 239 228 211 213 221 231 239 256 275 290 301 308 311 314 317 321 322 323 323 322 322 321 319 315 312 308 307 301 295 290 284 283